Home > Time Zones > World Clock > Weather > Spain > Palma > Past weeks

Flag for Spain Weather past 2 weeks in Palma, Majorca, Spain

Now
41 °F

Passing clouds.


Feels Like: 41 °F
Forecast: 38 / 59 °F
Wind: No wind

Location: Palma De Mallorca / Son San Juan

Current Time: Dec 21, 2014 at 4:37:48 AM

Latest Report: Dec 21, 2014 at 3:30 AM


Visibility: 6 mi

Pressure: 30.45 "Hg

Humidity: 100%

Dew point: 41 °F

Location of PalmaLocation

Historic Weather in Palma — Graph

°F

Palma temperature yesterday

Maximum temperature yesterday: 63 °F (at 1:30 PM)
Minimum temperature yesterday: 43 °F (at 5:30 AM)
Average temperature yesterday: 52 °F

Past Weeks' High & Low Weather Summary

 TemperatureHumidityPressure
High64 °F (Dec 11, 12:30 PM)100% (Dec 6, 4:00 AM)30.45 "Hg (Dec 6, 4:00 AM)
Low37 °F (Dec 7, 8:00 AM)30% (Dec 9, 11:30 AM)29.89 "Hg (Dec 16, 4:30 AM)
Average53 °F81%30.16 "Hg
* Reported Dec 6 3:00 AM — Dec 21 3:00 AM, Palma, Weather by CustomWeather, © 2014

Note: Actual official high and low records may vary slightly from our data, if they occured in-between our weather recording intervals... More about our weather records

Advertising

Palma weather history for previous 24 hours

 ConditionsComfort  
Time TempWeatherWind HumidityBarometerVisibility
3:00 AM
Dec 21
43 °FPassing clouds.No wind93%30.45 "Hg6 mi
2:30 AM41 °FPassing clouds.No wind100%30.45 "Hg6 mi
2:00 AM43 °FPassing clouds.No wind100%30.45 "Hg6 mi
1:30 AM43 °FPassing clouds.No wind100%30.45 "Hg6 mi
1:00 AM45 °FPassing clouds.1 mph93%30.45 "Hg6 mi
12:30 AM43 °FPassing clouds.1 mph100%30.45 "Hg6 mi
12:00 AM45 °FPassing clouds.2 mph93%30.45 "Hg6 mi
11:30 PM
Dec 20
45 °FPassing clouds.No wind100%30.45 "HgN/A
11:00 PM46 °FPassing clouds.1 mph93%30.45 "HgN/A
10:30 PM46 °FPassing clouds.No wind93%30.45 "HgN/A
10:00 PM46 °FPassing clouds.No wind100%30.45 "HgN/A
9:30 PM48 °FPassing clouds.1 mph94%30.45 "HgN/A
9:00 PM48 °FPassing clouds.No wind94%30.42 "HgN/A
8:30 PM48 °FPassing clouds.1 mph100%30.42 "HgN/A
8:00 PM50 °FPassing clouds.No wind94%30.42 "HgN/A
7:30 PM52 °FPassing clouds.No wind88%30.42 "HgN/A
7:00 PM52 °FPassing clouds.No wind88%30.42 "HgN/A
6:30 PM54 °FPassing clouds.1 mph88%30.42 "HgN/A
6:00 PM55 °FPassing clouds.2 mph82%30.39 "HgN/A
5:30 PM59 °FPassing clouds.No wind72%30.39 "HgN/A
5:00 PM61 °FPassing clouds.No wind72%30.39 "HgN/A
4:30 PM63 °FPassing clouds.1 mph68%30.39 "HgN/A
4:00 PM63 °FPassing clouds.3 mph68%30.39 "HgN/A
3:30 PM63 °FPassing clouds.2 mph64%30.39 "HgN/A
3:00 PM63 °FPassing clouds.3 mph68%30.39 "HgN/A
2:30 PM63 °FPassing clouds.3 mph73%30.39 "HgN/A
2:00 PM63 °FPassing clouds.2 mph68%30.42 "HgN/A
1:30 PM63 °FScattered clouds.2 mph73%30.42 "HgN/A
1:00 PM61 °FScattered clouds.2 mph77%30.42 "HgN/A
12:30 PM61 °FPassing clouds.1 mph77%30.45 "HgN/A
12:00 PM61 °FPassing clouds.No wind77%30.45 "HgN/A
11:30 AM59 °FPassing clouds.No wind88%30.45 "HgN/A
11:00 AM55 °FPassing clouds.No wind100%30.45 "HgN/A
10:30 AM54 °FPassing clouds.No wind100%30.45 "HgN/A
10:00 AM52 °FPassing clouds.No wind100%30.45 "HgN/A
9:30 AM48 °FSleet. Light fog.No wind100%30.42 "HgN/A
9:00 AM45 °FSleet. Cloudy.No wind100%30.42 "Hg5 mi
8:30 AM46 °FSleet. Cloudy.No wind100%30.42 "Hg4 mi
8:00 AM46 °FLight fog.No wind100%30.42 "Hg2 mi
7:30 AM46 °FLight fog.No wind100%30.42 "Hg2 mi
7:00 AM46 °FLow clouds.2 mph100%30.39 "Hg1 mi
6:30 AM46 °FFog.No wind100%30.39 "Hg1 mi
6:00 AM46 °FPassing clouds.1 mph100%30.39 "Hg1 mi
5:30 AM43 °FPassing clouds.1 mph100%30.39 "Hg1 mi
5:00 AM45 °FFog.No wind100%30.39 "Hg1 mi
4:52 AM45 °FFog.No wind100%30.39 "Hg1 mi
4:30 AM46 °FFog.2 mph100%30.39 "Hg2 mi
4:00 AM46 °FFog.1 mph100%30.39 "Hg2 mi
Weather by CustomWeather, © 2014

See weather overviewHow to use our weather pages